This demonstration page uses our WeatherBlox Daily Observations layout. Learn more.

Hourly Observations for December 1, 2015

Temp ( °F °C ) Dew Point ( °F °C ) Humidity (%) Winds ( mph kmh ) Pressure ( in mb ) Visibility ( mi km ) Precip ( " mm )
12:15 am 00:15 Clear 26 -3.5 22 -5.5 86 86 W 13 20 29.91 1013 10 16.0934 0 0
12:35 am 00:35 Clear 25 -3.8 22 -5.7 87 87 W 13 20 29.91 1013 10 16.0934 0 0
12:55 am 00:55 Clear 25 -3.9 22 -5.7 87 87 W 9 15 29.91 1013 10 16.0934 0 0
1:15 am 01:15 Clear 24 -4.2 21 -6 87 87 WSW 12 19 29.91 1013 10 16.0934 0 0
1:35 am 01:35 Partly Cloudy 24 -4.3 21 -5.9 89 89 WSW 12 19 29.91 1013 10 16.0934 0 0
1:55 am 01:55 Partly Cloudy 24 -4.5 21 -6.3 87 87 W 9 15 29.91 1013 10 16.0934 0 0
2:15 am 02:15 Mostly Cloudy 24 -4.4 21 -6.3 87 87 W 12 19 29.91 1013 10 16.0934 0 0
2:35 am 02:35 Cloudy 25 -3.7 21 -6.1 84 84 W 9 15 29.91 1013 10 16.0934 0 0
2:55 am 02:55 Cloudy 26 -3.2 22 -5.7 83 83 W 12 19 29.91 1013 10 16.0934 0 0
3:15 am 03:15 Mostly Cloudy 27 -3 22 -5.5 83 83 W 13 20 29.91 1013 10 16.0934 0 0
3:35 am 03:35 Cloudy 27 -3 22 -5.5 83 83 W 12 19 29.91 1013 7 11.26538 0 0
3:55 am 03:55 Cloudy with Mist and Fog 26 -3.3 22 -5.5 85 85 WSW 12 19 29.91 1013 5 8.0467 0 0
4:15 am 04:15 Cloudy 26 -3.4 21 -6 82 82 WSW 13 20 29.91 1013 10 16.0934 0 0
4:35 am 04:35 Cloudy 26 -3.2 22 -5.6 84 84 WSW 10 17 29.91 1013 10 16.0934 0 0
4:55 am 04:55 Mostly Cloudy 26 -3.2 22 -5.5 84 84 W 13 20 29.88 1012 10 16.0934 0 0
5:15 am 05:15 Mostly Cloudy 28 -2.4 25 -4.1 88 88 W 12 19 29.85 1011 10 16.0934 0 0
5:35 am 05:35 Cloudy with Light Snow 28 -2 26 -3.3 91 91 W 8 13 29.85 1011 5 8.0467 0 0
5:55 am 05:55 Cloudy with Light Snow 29 -1.4 27 -2.9 90 90 WNW 8 13 29.85 1011 5 8.0467 0 0
6:15 am 06:15 Cloudy 29 -1.7 26 -3.1 90 90 WNW 12 19 29.85 1011 7 11.26538 0 0
6:35 am 06:35 Cloudy 28 -2 24 -4.3 84 84 WNW 16 26 29.85 1011 10 16.0934 0 0
6:55 am 06:55 Mostly Cloudy 28 -2.3 24 -4.7 84 84 WNW 12 19 29.85 1011 10 16.0934 0 0
7:15 am 07:15 Mostly Cloudy 28 -2.3 23 -5 82 82 WNW 12 19 29.88 1012 10 16.0934 0 0
7:35 am 07:35 Partly Cloudy 27 -2.7 22 -5.8 79 79 WNW 13 20 29.91 1013 10 16.0934 0 0
7:55 am 07:55 Sunny 27 -3 21 -6.2 79 79 WNW 10 17 29.91 1013 10 16.0934 0 0
8:15 am 08:15 Sunny 26 -3.1 20 -6.6 77 77 WNW 12 19 29.91 1013 10 16.0934 0 0
8:35 am 08:35 Sunny 26 -3.1 20 -6.6 77 77 WNW 9 15 29.91 1013 10 16.0934 0 0
8:55 am 08:55 Sunny 26 -3.1 20 -6.5 78 78 W 9 15 29.91 1013 10 16.0934 0 0
9:15 am 09:15 Sunny 27 -2.6 21 -6 78 78 W 10 17 29.91 1013 10 16.0934 0 0
9:35 am 09:35 Mostly Cloudy 29 -1.7 22 -5.5 76 76 WNW 12 19 29.88 1012 10 16.0934 0 0
9:55 am 09:55 Cloudy 30 -1.2 22 -5.6 72 72 WNW 12 19 29.88 1012 10 16.0934 0 0
10:15 am 10:15 Cloudy 30 -1.1 22 -5.6 72 72 WNW 14 22 29.88 1012 10 16.0934 0 0
10:35 am 10:35 Cloudy 30 -1 22 -5.5 72 72 WNW 15 24 29.88 1012 10 16.0934 0 0
10:55 am 10:55 Cloudy with Light Snow 30 -0.9 22 -5.6 71 71 WNW 17 28 29.88 1012 10 16.0934 0 0
11:15 am 11:15 Windy with Snow Likely 31 -0.7 23 -5.1 72 72 WNW 20 31 29.88 1012 10 16.0934 0 0
11:35 am 11:35 Cloudy 31 -0.6 23 -4.8 74 74 WNW 15 24 29.88 1012 10 16.0934 0 0
11:55 am 11:55 Mostly Cloudy 32 -0.2 23 -4.9 71 71 WNW 17 28 29.88 1012 10 16.0934 0 0
12:15 pm 12:15 Cloudy 32 -0.2 23 -5 70 70 WNW 16 26 29.88 1012 10 16.0934 0 0
12:35 pm 12:35 Windy with Snow Likely 31 -0.5 25 -4.1 77 77 NW 20 31 29.91 1013 4 6.43736 0 0
12:55 pm 12:55 Cloudy with Light Snow 30 -1 26 -3.1 86 86 NW 17 28 29.91 1013 1.5 2.41401 0 0
1:15 pm 13:15 Cloudy with Light Snow 30 -1 27 -2.7 88 88 NW 13 20 29.88 1012 1.5 2.41401 0 0
1:35 pm 13:35 Cloudy with Light Snow 30 -1.1 27 -2.9 88 88 WNW 15 24 29.91 1013 1.25 2.011675 0 0
1:55 pm 13:55 Cloudy with Light Snow 30 -1.2 27 -3 88 88 WNW 16 26 29.91 1013 2 3.21868 0 0
2:15 pm 14:15 Cloudy with Light Snow 30 -1.2 27 -2.8 89 89 WNW 15 24 29.91 1013 1.25 2.011675 0 0
2:35 pm 14:35 Cloudy with Light Snow 30 -1.2 27 -2.7 90 90 WNW 14 22 29.91 1013 1.5 2.41401 0 0
2:55 pm 14:55 Cloudy with Light Snow 30 -1.2 27 -2.7 90 90 WNW 13 20 29.91 1013 3 4.82802 0 0
3:15 pm 15:15 Cloudy with Light Snow 30 -1 27 -2.6 89 89 WNW 16 26 29.91 1013 7 11.26538 0 0
3:35 pm 15:35 Cloudy 31 -0.7 27 -2.9 85 85 WNW 14 22 29.91 1013 10 16.0934 0 0
3:55 pm 15:55 Cloudy 31 -0.6 26 -3.3 82 82 WNW 17 28 29.91 1013 10 16.0934 0 0
4:15 pm 16:15 Cloudy with Light Snow 31 -0.7 26 -3.1 84 84 WNW 14 22 29.91 1013 7 11.26538 0 0
4:35 pm 16:35 Mostly Cloudy with Scattered Snow Showers 31 -0.8 27 -3 85 85 NW 13 20 29.91 1013 5 8.0467 0 0
4:55 pm 16:55 Mostly Cloudy with Scattered Snow Showers 30 -1.2 26 -3.1 87 87 WNW 12 19 29.94 1014 5 8.0467 0 0
5:15 pm 17:15 Partly Cloudy with Scattered Snow Showers 29 -1.5 26 -3.2 88 88 WNW 12 19 29.94 1014 7 11.26538 0 0
5:35 pm 17:35 Partly Cloudy with Scattered Snow Showers 29 -1.6 26 -3.3 88 88 WNW 10 17 29.97 1015 7 11.26538 0 0
5:55 pm 17:55 Cloudy 30 -1.3 27 -3 88 88 WNW 12 19 29.94 1014 10 16.0934 0 0
6:15 pm 18:15 Cloudy with Light Wintry Mix 30 -0.9 27 -2.9 86 86 NW 9 15 29.97 1015 10 16.0934 0 0
6:35 pm 18:35 Cloudy 31 -0.8 26 -3.1 85 85 NW 15 24 29.97 1015 10 16.0934 0 0
6:55 pm 18:55 Cloudy 31 -0.8 26 -3.2 84 84 NW 13 20 29.97 1015 10 16.0934 0 0
7:15 pm 19:15 Cloudy 31 -0.7 26 -3.2 83 83 NW 15 24 29.97 1015 10 16.0934 0 0
7:35 pm 19:35 Cloudy 30 -0.9 26 -3.4 83 83 NW 15 24 29.97 1015 10 16.0934 0 0
7:55 pm 19:55 Cloudy 30 -1 26 -3.2 85 85 NW 14 22 30 1016 10 16.0934 0 0
8:15 pm 20:15 Cloudy 30 -1 26 -3.2 85 85 NW 13 20 30 1016 10 16.0934 0 0
8:35 pm 20:35 Cloudy 31 -0.8 26 -3.5 82 82 NW 16 26 30 1016 10 16.0934 0 0
8:55 pm 20:55 Cloudy 30 -1 25 -3.7 82 82 NW 16 26 30 1016 10 16.0934 0 0
9:15 pm 21:15 Cloudy with Light Snow 30 -1.1 26 -3.6 83 83 NW 14 22 30 1016 10 16.0934 0 0
9:35 pm 21:35 Mostly Cloudy with Scattered Snow Showers 30 -1.3 25 -3.7 84 84 NW 13 20 30 1016 10 16.0934 0 0
9:55 pm 21:55 Mostly Cloudy with Scattered Snow Showers 29 -1.5 26 -3.5 86 86 NW 14 22 30 1016 10 16.0934 0 0
10:15 pm 22:15 Cloudy 30 -1 26 -3.3 85 85 NW 15 24 30 1016 10 16.0934 0 0
10:35 pm 22:35 Cloudy 30 -1 26 -3.5 83 83 NW 14 22 30.06 1018 10 16.0934 0 0
10:55 pm 22:55 Cloudy 31 -0.8 26 -3.4 83 83 NW 16 26 30.06 1018 10 16.0934 0 0
11:15 pm 23:15 Cloudy 31 -0.6 26 -3.1 83 83 NW 15 24 30.06 1018 10 16.0934 0 0
11:35 pm 23:35 Cloudy 31 -0.7 26 -3.2 83 83 NW 15 24 30.06 1018 10 16.0934 0 0
11:55 pm 23:55 Cloudy 31 -0.6 26 -3.1 83 83 NW 13 20 30.06 1018 10 16.0934 0 0

Powered by AerisWeather